Location: Haut Kerinec
(48.0623°N, 4.4081°W)
Time: 18:12:54
(UTC+00:00)

Spot 4 - Pass Details

Date: 01 June 2020
Orbit: 703 x 724 km, 98.3° (Epoch: 02 July)

Event Time Altitude Azimuth Distance (km) Brightness Sun altitude
Exits shadow 22:53:29 30° 144° (SE) 1,269 4.6 -17.3°
Maximum altitude 22:55:47 66° 72° (ENE) 793 4.0 -17.5°
Drops below altitude 10° 23:00:36 10° 351° (N) 2,217 7.6 -17.7°
Sets 23:02:53 0° 349° (N) 3,139 8.9 -17.8°
